Location: Newark
(52.3500°N, 175.9667°E)
Time: 11:12:38
(UTC+00:00)

A-11 Canister half - All Passes

Search period start: 18 April 2021 00:00
Search period end: 28 April 2021 00:00
Orbit: 1525 x 1683 km, 47.3° (Epoch: 17 April)

Date Brightness Start Highest point End Pass type
(mag) Time Alt. Az. Time Alt. Az. Time Alt. Az.
18 Apr - 02:16:15 10° SSE 02:22:15 18° SE 02:28:18 10° E daylight
18 Apr - 04:16:00 10° SW 04:25:18 44° SSE 04:34:41 10° E daylight
18 Apr - 06:19:34 10° WSW 06:29:34 66° S 06:39:33 10° E daylight
18 Apr - 08:24:15 10° W 08:34:09 59° SSW 08:43:55 10° ESE visible
18 Apr - 10:29:25 10° W 10:37:56 32° SW 10:46:19 10° SSE visible
19 Apr - 01:55:01 10° SSE 02:00:41 17° SE 02:06:25 10° E daylight
19 Apr - 03:54:27 10° SW 04:03:40 43° SSE 04:12:59 10° E daylight
19 Apr - 05:57:55 10° WSW 06:07:54 66° S 06:17:53 10° E daylight
19 Apr - 08:02:34 10° W 08:12:29 60° SSW 08:22:18 10° ESE visible
19 Apr - 10:07:42 10° W 10:16:20 34° SW 10:24:51 10° SSE visible
20 Apr - 01:33:50 10° SSE 01:39:08 16° SE 01:44:28 10° E daylight
20 Apr - 03:32:54 10° SSW 03:42:02 42° SSE 03:51:18 10° E daylight
20 Apr - 05:36:16 10° WSW 05:46:13 65° S 05:56:13 10° E daylight
20 Apr - 07:40:53 10° W 07:50:49 61° SSW 08:00:40 10° ESE visible
20 Apr - 09:45:58 10° W 09:54:44 35° SW 10:03:22 10° SSE visible
20 Apr - 11:55:35 10° WSW 11:57:15 10° WSW 11:58:56 10° SW visible
21 Apr - 01:12:42 10° SSE 01:17:35 15° SE 01:22:29 10° E daylight
21 Apr - 03:11:22 10° SSW 03:20:25 41° SE 03:29:36 10° E daylight
21 Apr - 05:14:37 10° WSW 05:24:33 64° S 05:34:32 10° E daylight
21 Apr - 07:19:12 10° W 07:29:09 62° SSW 07:39:02 10° ESE daylight
21 Apr - 09:24:15 10° W 09:33:07 36° SW 09:41:53 10° SSE visible
21 Apr - 11:32:53 10° WSW 11:35:43 11° WSW 11:38:32 10° SW visible
22 Apr - 00:51:38 10° SSE 00:56:02 14° SE 01:00:28 10° E daylight
22 Apr - 02:49:51 10° SSW 02:58:48 39° SE 03:07:53 10° E daylight
22 Apr - 04:52:58 10° WSW 05:02:53 64° SSE 05:12:51 10° E daylight
22 Apr - 06:57:32 10° W 07:07:29 63° SSW 07:17:24 10° ESE daylight
22 Apr - 09:02:33 10° W 09:11:30 37° SW 09:20:22 10° SSE visible
22 Apr - 11:10:34 10° W 11:14:11 12° WSW 11:17:46 10° SW visible
23 Apr - 00:30:40 10° SSE 00:34:29 13° ESE 00:38:20 10° E daylight
23 Apr - 02:28:20 10° SSW 02:37:11 38° SE 02:46:11 10° E daylight
23 Apr - 04:31:21 10° WSW 04:41:12 63° SSE 04:51:11 10° E daylight
23 Apr - 06:35:52 10° W 06:45:49 63° SSW 06:55:45 10° ESE daylight
23 Apr - 08:40:50 10° W 08:49:53 39° SW 08:58:51 10° SSE visible
23 Apr - 10:48:25 10° W 10:52:38 13° WSW 10:56:49 10° SSW visible
24 Apr - 00:09:49 10° SE 00:12:57 12° ESE 00:16:06 10° ESE daylight
24 Apr - 02:06:50 10° SSW 02:15:34 37° SE 02:24:28 10° E daylight
24 Apr - 04:09:42 10° WSW 04:19:33 62° SSE 04:29:30 10° E daylight
24 Apr - 06:14:11 10° W 06:24:09 64° S 06:34:06 10° ESE daylight
24 Apr - 08:19:07 10° W 08:28:15 40° SW 08:37:20 10° SSE visible
24 Apr - 10:26:21 10° W 10:31:05 14° SW 10:35:47 10° SSW visible
24 Apr - 23:49:14 10° SE 23:51:25 11° ESE 23:53:36 10° ESE daylight
25 Apr - 01:45:20 10° SSW 01:53:57 35° SE 02:02:44 10° E daylight
25 Apr - 03:48:05 10° WSW 03:57:53 61° SSE 04:07:49 10° E daylight
25 Apr - 05:52:31 10° W 06:02:28 65° S 06:12:28 10° ESE daylight
25 Apr - 07:57:25 10° W 08:06:39 41° SSW 08:15:47 10° SSE visible
25 Apr - 10:04:21 10° W 10:09:32 15° SW 10:14:41 10° SSW visible
26 Apr - 01:23:51 10° SSW 01:32:21 34° SE 01:41:01 10° E daylight
26 Apr - 03:26:28 10° WSW 03:36:13 61° SSE 03:46:09 10° E daylight
26 Apr - 05:30:52 10° W 05:40:48 65° S 05:50:48 10° ESE daylight
26 Apr - 07:35:44 10° W 07:45:01 43° SSW 07:54:15 10° SE daylight
26 Apr - 09:42:25 10° W 09:47:59 16° SW 09:53:30 10° SSW visible
27 Apr - 01:02:22 10° SSW 01:10:44 33° SE 01:19:17 10° E daylight
27 Apr - 03:04:50 10° WSW 03:14:34 60° SSE 03:24:27 10° E daylight
27 Apr - 05:09:11 10° W 05:19:08 66° S 05:29:09 10° ESE daylight
27 Apr - 07:14:02 10° W 07:23:23 44° SSW 07:32:42 10° SE daylight
27 Apr - 09:20:30 10° W 09:26:24 17° SW 09:32:18 10° SSW visible
